Location: ???????
(55.4362°N, 38.1183°E)
Time: 17:46:27
(UTC+00:00)

Terra - Visible Passes

Search period start: 16 October 2021 00:00
Search period end: 26 October 2021 00:00
Orbit: 701 x 703 km, 98.2° (Epoch: 16 October)

Date Brightness Start Highest point End Pass type
(mag) Time Alt. Az. Time Alt. Az. Time Alt. Az.
16 Oct 4.1 16:53:44 11° NNE 16:53:44 11° NNE 16:54:34 10° NNE visible
16 Oct 4.0 18:32:37 20° N 18:32:37 20° N 18:34:08 10° N visible
16 Oct 4.9 20:11:30 11° NNW 20:11:30 11° NNW 20:11:43 10° NNW visible
17 Oct 3.9 17:37:04 16° NNE 17:37:04 16° NNE 17:38:31 10° N visible
17 Oct 4.4 19:15:58 17° NNW 19:15:58 17° NNW 19:17:00 10° NNW visible
18 Oct 4.1 18:20:25 18° N 18:20:25 18° N 18:21:46 10° N visible
18 Oct 4.9 19:59:19 11° NNW 19:59:19 11° NNW 19:59:35 10° NNW visible
19 Oct 4.0 17:24:53 14° NNE 17:24:53 14° NNE 17:26:01 10° N visible
19 Oct 4.4 19:03:46 16° NNW 19:03:46 16° NNW 19:04:44 10° NNW visible
20 Oct 4.1 18:08:13 16° N 18:08:13 16° N 18:09:23 10° N visible
20 Oct 4.8 19:47:07 12° NNW 19:47:07 12° NNW 19:47:23 10° NNW visible
21 Oct 4.1 17:12:41 12° NNE 17:12:41 12° NNE 17:13:27 10° NNE visible
21 Oct 4.4 18:51:34 15° N 18:51:34 15° N 18:52:26 10° NNW visible
22 Oct 4.2 17:56:01 15° N 17:56:01 15° N 17:56:59 10° N visible
22 Oct 4.8 19:34:54 11° NNW 19:34:54 11° NNW 19:35:11 10° NNW visible
23 Oct 4.2 17:00:28 11° NNE 17:00:28 11° NNE 17:00:46 10° NNE visible
23 Oct 4.4 18:39:21 14° N 18:39:21 14° N 18:40:06 10° N visible
24 Oct 4.2 17:43:48 13° N 17:43:48 13° N 17:44:33 10° N visible
24 Oct 4.8 19:22:42 11° NNW 19:22:42 11° NNW 19:22:56 10° NNW visible
25 Oct 4.5 18:27:09 13° N 18:27:09 13° N 18:27:45 10° N visible
